"Pseudo-MPEC" for GS428A

Created 2016 Jun 20 2:34:58 UT using Find_Orb

Astrometry:
     GS428A   C2004 02 08.07008107 48 19.71 +56 39 06.9                      J95
     GS428A   C2004 02 08.07042807 48 47.01 +56 35 31.7                      J95
     GS428A   C2004 02 08.07094907 49 27.93 +56 30 06.4                      J95
     GS428A   C2004 02 08.07129607 49 54.24 +56 26 36.0          13   R      J95
     GS428A   C2004 02 09.07222807 55 17.36 +55 39 44.5          12.3 R      J95
     GS428A   C2004 02 09.07257507 55 43.64 +55 35 58.1          12.3 R      J95
     GS428A   C2004 02 09.07292207 56 10.41 +55 32 07.1          12.1 R      J95
     GS428A   C2004 02 09.07327007 56 37.39 +55 28 12.5          13.8 R      J95
     GS428A   C2004 02 09.07361707 57 04.21 +55 24 17.9          13.7 R      J95
     GS428A   C2004 02 09.07396407 57 30.65 +55 20 25.4          12.8 R      J95
     GS428A   C2004 02 09.07431107 57 56.98 +55 16 32.7          12.7 R      J95
     GS428A   C2004 02 09.07465907 58 23.56 +55 12 36.9          12.4 R      J95
     GS428A   C2004 02 09.07500607 58 50.34 +55 08 37.4          14.3 R      J95
     GS428A   C2004 02 09.07535307 59 16.53 +55 04 42.4          13.8 R      J95
     GS428A   C2004 02 09.07570007 59 43.28 +55 00 40.5          12.7 R      J95
     GS428A   C2004 02 09.07604708 00 09.55 +54 56 42.6          12.4 R      J95
     GS428A   C2004 02 09.07639508 00 35.94 +54 52 41.7          11.9 R      J95
     GS428A   C2004 02 09.07674208 01 02.48 +54 48 38.4          13.8 R      J95
     GS428A   C2004 02 09.07691608 01 15.79 +54 46 35.9          11.8 R      J95
     GS428A   C2004 02 10.98791106 00 43.46 +64 38 11.3          13.8 R      J95
     GS428A   C2004 02 10.98825806 01 17.82 +64 36 59.7          13.4 R      J95
     GS428A   C2004 02 10.98860506 01 52.67 +64 35 46.5          12.9 R      J95
     GS428A   C2004 02 10.98895306 02 27.48 +64 34 32.7          14.2 R      J95
     GS428A   C2004 02 10.98930006 03 02.10 +64 33 18.4          13.8 R      J95
     GS428A   C2004 02 11.07564208 07 40.53 +53 39 15.3          13.0 R      J95
     GS428A   C2004 02 11.07599008 08 06.36 +53 34 54.4          12.0 R      J95
     GS428A   C2004 02 11.07616308 08 19.51 +53 32 41.1          13.4 R      J95
     GS428A   C2004 02 11.07633708 08 32.56 +53 30 29.5          13.8 R      J95
     GS428A   V2004 02 25.65295615 26 12.00 -38 00 00.0         x            247
     GS428A   v2004 02 25.652956  138.6333   -34.9638     100                247
     GS428A   V2004 02 26.64628213 32 12.00 -18 38 00.0         x            247
     GS428A   v2004 02 26.646282  138.6333   -34.9638     100                247

Station data:
(247) Roving observer (S34.96380 E138.63330)  Australia/SA.
(J95) Great Shefford (N51.47502 W1.44700)  UK.   Observer P. Birtwhistle. 
    0.30-m f/6.3 Schmidt-Cassegrain + CCD.

Orbital elements:  GS428A
   Perigee 2004 Feb 11.213278 +/- 3.94e-5 TT =  5:07:07 (JD 2453046.713278)
Epoch 2004 Feb 11.0 TT = JDT 2453046.5                        Find_Orb
M 205.890593 +/- 0.028              (J2000 equatorial)
n 722.575809932 +/- 0.000305        Peri.  273.652606 +/- 0.007
a 26546.94564 +/- 0.00746           Node   349.665848 +/- 0.0012
e   0.69504039 +/- 4.48e-5          Incl.   65.042395 +/- 0.00023
P 717.42m/0.498d           H 30.0   G  0.15   U  7.3  
q 8095.746148 +/- 1.19    Q 44998.14514 +/- 1.18
28 of 30 observations 2004 Feb. 8-11; mean residual 2".002
Residuals in arcseconds: 
040208 J95 1.16+ 1.92-    040209 J95 2.37- 3.03+    040210 J95 1.43- .289+    
040208 J95 2.18+ 2.50-    040209 J95 2.59- 3.60+    040210 J95 .270- .146+    
040208 J95 3.63+ 3.87-    040209 J95 .209- .786+    040210 J95 .203+ .215+    
040208 J95 2.91- 2.61+    040209 J95 2.64- 3.47+    040210 J95 .311+ .172+    
040209 J95 .377- .645+    040209 J95 .022- .259+    040211 J95 .981+ 1.05-    
040209 J95 3.95- 4.07+    040209 J95 1.29- 2.06+    040211 J95 .453- .152-    
040209 J95 3.13- 3.85+    040209 J95 1.95- 2.56+    040211 J95 1.67+ 2.88-    
040209 J95 .923- 1.68+    040209 J95 .414- 1.00+    040211 J95 2.30+ 2.88-    
040209 J95 .823+ .185-    040209 J95 .462+ .095+    040225 247(5097+ 2959-)   
040209 J95 .423- 1.03+    040210 J95 .780+ .569-    040226 247(3244+ 4769-)   

Ephemerides (geocentric):
Date (UTC) HH   RA              Dec         delta   r     elong  mag " sig PA
---- -- -- --  ------------   ------------  ------ ------ -----  --- ---- ---
2004 02 11 00  06 52 06.301   +63 06 46.44   44315 .98697 123.5 14.3  0.4 124
2004 02 11 01  07 52 19.366   +59 17 09.49   41815 .98700 131.1 14.0  0.7 174
2004 02 11 02  08 45 48.672   +53 02 16.24   37315 .98701 140.0 13.5  3.3 117
2004 02 11 03  09 36 29.739   +42 48 20.50   30440 .98701 151.5 12.7   16 139
2004 02 11 04  10 34 50.653   +22 11 53.78   20461 .98697 164.0 11.5   74 151
2004 02 11 05  14 39 41.572   -58 49 05.49    8368 .98684  85.0 12.1  698 125
2004 02 11 06  00 00 11.205   +21 14 48.05   17983 .98678  50.0 16??  165  28
2004 02 11 07  01 13 03.777   +45 50 47.46   28709 .98682  77.3 15.1   55  40
2004 02 11 08  02 16 44.895   +56 26 41.24   36137 .98687  91.2 15.0   26  53
2004 02 11 09  03 23 40.034   +62 02 46.66   41078 .98693 101.0 14.9   13  69
2004 02 11 10  04 35 03.972   +64 38 27.24   43962 .98698 109.0 14.8  6.0  87
2004 02 11 11  05 47 07.515   +64 51 56.84   44996 .98703 116.3 14.6  1.7 107
2004 02 11 12  06 54 31.304   +62 59 43.78   44247 .98706 123.5 14.3  0.5 124
2004 02 11 13  07 54 25.761   +59 04 48.79   41667 .98709 131.2 14.0  0.7 178
2004 02 11 14  08 47 42.681   +52 42 35.58   37076 .98711 140.1 13.5  3.6 119
2004 02 11 15  09 38 26.241   +42 14 03.38   30087 .98710 151.9 12.7   17 140
2004 02 11 16  10 37 41.472   +20 47 42.02   19954 .98706 164.3 11.4   79 151
2004 02 11 17  15 48 42.291   -63 16 24.83    8189 .98693  76.3 12.4  738 110
2004 02 11 18  00 03 46.480   +22 58 13.78   18518 .98687  51.3 16??  155  28
2004 02 11 19  01 15 32.541   +46 27 16.03   29085 .98691  77.6 15.1   54  40
2004 02 11 20  02 19 13.438   +56 45 17.02   36393 .98697  91.2 15.0   25  54
2004 02 11 21  03 26 19.823   +62 12 22.17   41240 .98702 100.9 14.9   12  70
2004 02 11 22  04 37 50.583   +64 41 37.15   44043 .98707 108.9 14.8  5.8  88
2004 02 11 23  05 49 48.011   +64 49 41.17   45001 .98712 116.2 14.6  1.6 108
2004 02 12 00  06 56 54.968   +62 52 28.76   44176 .98716 123.4 14.3  0.6 123
2004 02 12 01  07 56 30.899   +58 52 14.60   41516 .98718 131.2 14.0  0.6   0
2004 02 12 02  08 49 35.838   +52 22 33.95   36833 .98720 140.3 13.5  3.8 121
2004 02 12 03  09 40 22.832   +41 38 54.36   29730 .98719 152.3 12.7   18 140
2004 02 12 04  10 40 37.525   +19 19 10.09   19441 .98715 164.6 11.3   85 152
2004 02 12 05  17 16 44.686   -65 02 13.61    8102 .98701  67.3 12.9  762  90